Погода в Кутах

Украина / Ивано-Франковская область     48°15′44″N   25°10′46″E
темп.,
°C
ветер,
м/с
пор.,
м/с
влажн.,
%
обл.,
%
осадки,
мм/ч
давл.,
гПа
погр.,
м
9 мая, вс
вс900:00+2юз22805 0.0 102430
03:00+1юз33836 0.0 102551
06:00+1юз337923 0.0 102543
09:00+9ююз12505 0.0 1025497
12:00+14св24375 0.0 10231972
15:00+16всв44376 0.0 10221825
18:00+14в44495 0.0 10231003
21:00+8юв24775 0.0 102467
10 мая, пн
пн1000:00+6ю22795 0.0 102531
03:00+5ююз22795 0.0 102423
06:00+4ююз22775 0.0 102420
09:00+13вюв23545 0.0 1023362
12:00+18в44435 0.0 10211005
15:00+19в66465 0.0 1020864
18:00+18вюв47555 0.0 1019681
21:00+11юв35815 0.0 1020102
11 мая, вт
вт1100:00+9ююв22895 0.0 102138
03:00+8ююв12914 0.0 102034
06:00+7ююв23940 0.0 102047
09:00+14вюв35633 0.0 1019452
12:00+18вюв67500 0.0 1018928
15:00+19вюв66460 0.0 10161189
18:00+18вюв57560 0.0 10161058
21:00+11юв36810 0.0 1016132
12 мая, ср
ср1200:00+9ююв24850 0.0 101654
03:00+7ю22812 0.0 101428
06:00+6ююв11833 0.0 101313
09:00+13вюв356610 0.0 1011603
12:00+10вюв489298 0.1 1012453
15:00+10вюв478480 0.1 1011524
18:00+12юв487281 0.0 1009756
21:00+9вюв378297 0.0 1008538
13 мая, чт
чт1300:00+8юв3688100 0.0 1007361
03:00+8вюв2393100 0.1 1005146
06:00+8вюв1298100 2.3 100469
09:00+10в1296100 2.6 1005109
12:00+12в2289100 1.1 1005308
15:00+14вюв348453 2.6 1005560
18:00+14юв358683 1.6 1005383
21:00+11ююв2392100 2.8 100570